User: anonymous   Login
Location: ?????
(54.9266°N, 38.5527°E)
Time: 15:32:00
(UTC+00:00)
Language:

COSMOS 2251 DEB - Orbit

View from above orbital plane
View from above orbital plane
View from above satellite
View from above satellite

Ground track
Ground track

The orbit data is extracted from the following two-line orbital elements,

1 35464U 93036ALJ 24252.09133653  .00110176  00000-0  82237-2 0  9998
2 35464  73.9951 294.8378 0019343 203.2961 183.4909 15.02103270820232
Epoch (UTC): 08 September 2024 02:11:31
Eccentricity: 0.0019343
inclination: 73.9951°
perigee height: 547 km
apogee height: 574 km
right ascension of ascending node: 294.8378°
argument of perigee: 203.2961°
revolutions per day: 15.02103270
mean anomaly at epoch: 183.4909°
orbit number at epoch: 82023

The dashed part of the orbit path shows where the satellite is in the earth's shadow,  

DLR